Home   Weather   Horw   Past weeks

Flag for Switzerland Past Weather in Horw, Lucerne, Switzerland — Yesterday and Last 2 Weeks

Now
64 °F

Mild.


Feels Like: 64 °F
Forecast: 60 / 82 °F
Wind: 2 mph from West

Location: Giswil

Current Time: Aug 17, 2017 at 12:10:18 am

Latest Report: Aug 16, 2017 at 11:00 pm


Visibility: N/A

Pressure: 30.13 "Hg

Humidity: 100%

Dew Point: 64 °F

Location of HorwLocation

Past Weather in Horw — Graph

°F

Horw Temperature Yesterday

Maximum temperature yesterday: 79 °F (at 3:00 pm)
Minimum temperature yesterday: 61 °F (at 7:00 am)
Average temperature yesterday: 69 °F

High & Low Weather Summary for the Past Weeks

 TemperatureHumidityPressure
High87 °F (Aug 3, 4:00 pm)100% (Aug 3, 2:00 am)30.23 "Hg (Aug 3, 2:00 am)
Low47 °F (Aug 7, 6:00 am)41% (Aug 3, 3:00 pm)29.85 "Hg (Aug 8, 10:00 am)
Average65 °F84%30.07 "Hg
* Reported Aug 1 11:00 pm — Aug 16 11:00 pm, Horw. Weather by CustomWeather, © 2017

Note: Actual official high and low records may vary slightly from our data, if they occured in-between our weather recording intervals... More about our weather records

Advertising

Horw Weather History for the Previous 24 Hours

Scroll right to see more
 ConditionsComfort  
Time TempWeatherWind HumidityBarometerVisibility
11:00 pm
Wed, Aug 16
64 °FMild.2 mph100%30.13 "HgN/A
10:00 pm68 °FMild.6 mph86%30.11 "HgN/A
9:00 pm70 °FMild.7 mph81%30.11 "HgN/A
8:00 pm70 °FMild.6 mph92%30.10 "HgN/A
7:00 pm74 °FMild.2 mph82%30.08 "HgN/A
6:00 pm76 °FMild.1 mph78%30.08 "HgN/A
5:00 pm79 °FWarm.5 mph59%30.06 "HgN/A
4:00 pm79 °FWarm.3 mph59%30.07 "HgN/A
3:00 pm79 °FWarm.2 mph59%30.07 "HgN/A
2:00 pm77 °FWarm.2 mph57%30.09 "HgN/A
1:00 pm76 °FMild.2 mph59%30.10 "HgN/A
12:00 pm73 °FMild.3 mph62%30.12 "HgN/A
11:00 am71 °FMild.1 mph76%30.15 "HgN/A
10:00 am67 °FMild.1 mph86%30.18 "HgN/A
9:00 am64 °FMild.No wind98%30.19 "HgN/A
8:00 am61 °FCool.2 mph100%30.20 "HgN/A
7:00 am61 °FCool.3 mph99%30.20 "HgN/A
6:00 am62 °FCool.1 mph99%30.19 "HgN/A
5:00 am64 °FMild.1 mph99%30.18 "HgN/A
4:00 am64 °FMild.1 mph99%30.19 "HgN/A
3:00 am64 °FMild.1 mph99%30.18 "HgN/A
2:00 am64 °FMild.2 mph100%30.18 "HgN/A
1:00 am66 °FMild.1 mph98%30.17 "HgN/A
12:00 am67 °FMild.3 mph94%30.13 "HgN/A
Weather by CustomWeather, © 2017

See weather overviewHow to use our weather pages